This is the latest recevied weather packets stored in our database for station/object W3BRL. If no packets are shown the sender has not sent any weather packets the latest 10 day(s).
| Time | Temp. | Humidity | Pressure | Rain* | Wind** | Luminosity | Snow |
|---|---|---|---|---|---|---|---|
| 1777321646 | 22.22° C | 28% | 1016.3 hPa | 0 mm | - | 560 W/m² | - |
| 1777321342 | 22.22° C | 28% | 1016.5 hPa | 0 mm | - | 569 W/m² | - |
| 1777321039 | 22.22° C | 28% | 1016.5 hPa | 0 mm | - | 578 W/m² | - |
| 1777320738 | 22.22° C | 27% | 1016.5 hPa | 0 mm | - | 619 W/m² | - |
| 1777320434 | 22.22° C | 27% | 1016.6 hPa | 0 mm | - | 614 W/m² | - |
| 1777320131 | 22.22° C | 28% | 1016.6 hPa | 0 mm | - | 621 W/m² | - |
| 1777319828 | 21.67° C | 27% | 1016.6 hPa | 0 mm | - | 615 W/m² | - |
| 1777319525 | 21.67° C | 27% | 1016.8 hPa | 0 mm | - | 588 W/m² | - |
| 1777319222 | 22.22° C | 28% | 1016.8 hPa | 0 mm | - | 625 W/m² | - |
| 1777318919 | 22.22° C | 29% | 1016.8 hPa | 0 mm | - | 638 W/m² | - |
| 1777318616 | 21.67° C | 29% | 1017.1 hPa | 0 mm | - | 681 W/m² | - |
| 1777318312 | 21.67° C | 28% | 1017.1 hPa | 0 mm | - | 709 W/m² | - |
| 1777318009 | 21.67° C | 29% | 1017.1 hPa | 0 mm | - | 722 W/m² | - |
| 1777317706 | 22.22° C | 28% | 1017.1 hPa | 0 mm | - | 722 W/m² | - |
| 1777317403 | 22.22° C | 28% | 1017.5 hPa | 0 mm | - | 731 W/m² | - |
| 1777317098 | 21.67° C | 29% | 1017.4 hPa | 0 mm | - | 665 W/m² | - |
| 1777316796 | 22.22° C | 27% | 1017.5 hPa | 0 mm | - | 716 W/m² | - |
| 1777316493 | 22.22° C | 28% | 1017.3 hPa | 0 mm | - | 695 W/m² | - |
| 1777316190 | 22.22° C | 28% | 1017.5 hPa | 0 mm | - | 724 W/m² | - |
| 1777315887 | 22.22° C | 26% | 1017.7 hPa | 0 mm | - | 704 W/m² | - |
| 1777315585 | 21.67° C | 29% | 1017.7 hPa | 0 mm | - | 720 W/m² | - |
| 1777315283 | 21.11° C | 28% | 1017.6 hPa | 0 mm | - | 746 W/m² | - |
| 1777314981 | 21.67° C | 27% | 1017.8 hPa | 0 mm | - | 722 W/m² | - |
| 1777314676 | 21.11° C | 28% | 1017.7 hPa | 0 mm | - | 764 W/m² | - |
| 1777314373 | 21.67° C | 28% | 1017.8 hPa | 0 mm | - | 747 W/m² | - |
* Rain latest hour (hover to see other rain measurements)
** Current wind speed in m/s (hover to see current wind gust speed)